Wilmington, DE

1:06 PM EDT on July 28, 2017 (GMT -0400)
New Castle County

Weather History for KILG - January, 2013

Change the Weather History Date:

Thursday, January 31, 2013

  Actual Average Record
Temperature  
Mean Temperature 47 °F 33 °F  
Max Temperature 65 °F 41 °F 66 °F (1916)
Min Temperature 29 °F 25 °F 3 °F (1948)
Degree Days  
Heating Degree Days 18 32  
Month to date heating degree days 903 1012  
Since 1 July heating degree days 2549 2787  
Cooling Degree Days 0 0  
Month to date cooling degree days 0 0  
Year to date cooling degree days 0 0  
Moisture  
Dew Point 36 °F    
Average Humidity 67    
Maximum Humidity 100    
Minimum Humidity 33    
Precipitation  
Precipitation 0.55 in 0.10 in 1.06 in (1951)
Month to date precipitation 3.70 3.01  
Year to date precipitation 3.70 3.01  
Snow  
Snow 0.00 in 0.30 in 5.00 in (1898)
Month to date snowfall 1.9 5.9  
Since 1 July snowfall 2.3 9.7  
Snow Depth 0.00 in    
Sea Level Pressure  
Sea Level Pressure 29.46 in    
Wind  
Wind Speed 21 mph (WSW)    
Max Wind Speed 36 mph    
Max Gust Speed 47 mph    
Visibility 9 miles    
Events Rain    
T = Trace of Precipitation, MM = Missing Value Source: NWS Daily Summary

Daily Weather History Graph

Daily Weather History Graph

Search for Another Location

Airport or City:

Trip Planner

Search our weather history database for the weather conditions in past years. The results will help you decide how hot, cold, wet, or windy it might be!

Date:

Astronomy

Jan. 31, 2013 Rise Set
Actual Time 7:10 AM EST 5:21 PM EST
Civil Twilight 6:42 AM EST 5:49 PM EST
Nautical Twilight 6:10 AM EST 6:22 PM EST
Astronomical Twilight 5:38 AM EST 6:53 PM EST
Moon 10:20 PM EST (1/31) 9:10 AM EST (1/31)
Length of Visible Light 11h 07m
Length of Day
10h 10m
Waning Gibbous, 80% of the Moon is Illuminated
Jan 31
Waning Gibbous
Feb 3
Last Quarter
Feb 10
New
Feb 17
First Quarter
Feb 25
Full

Hourly Weather History & Observations

Time (EST) Temp. Windchill Dew Point Humidity Pressure Visibility Wind Dir Wind Speed Gust Speed Precip Events Conditions
12:15 AM 64.4 °F - 59.0 °F 83% 29.29 in 10.0 mi South 19.6 mph 36.8 mph 0.00 in Rain Light Rain
12:32 AM 64.4 °F - 59.0 °F 83% 29.25 in 10.0 mi South 26.5 mph 44.9 mph 0.01 in Rain Light Rain
12:51 AM 64.9 °F - 59.0 °F 81% 29.21 in 10.0 mi South 29.9 mph 42.6 mph 0.01 in   Overcast
12:59 AM 64.4 °F - 59.0 °F 83% 29.20 in 10.0 mi South 27.6 mph 42.6 mph N/A   Overcast
1:51 AM 64.9 °F - 59.0 °F 81% 29.16 in 10.0 mi South 24.2 mph 36.8 mph 0.01 in Rain Light Rain
2:08 AM 64.4 °F - 59.0 °F 83% 29.13 in 8.0 mi South 26.5 mph 42.6 mph 0.01 in Rain Light Rain
2:46 AM 64.4 °F - 60.8 °F 88% 29.17 in 1.8 mi SW 23.0 mph 39.1 mph 0.09 in Rain Heavy Rain
2:51 AM 64.0 °F - 61.0 °F 90% 29.19 in 1.5 mi WSW 24.2 mph 35.7 mph 0.20 in Rain Heavy Rain
2:56 AM 62.6 °F - 60.8 °F 94% 29.20 in 2.0 mi WSW 28.8 mph 40.3 mph 0.08 in Rain Heavy Rain
3:04 AM 60.8 °F - 57.2 °F 88% 29.22 in 4.0 mi WSW 26.5 mph 40.3 mph 0.12 in Rain Heavy Rain
3:51 AM 59.0 °F - 55.9 °F 90% 29.17 in 8.0 mi SW 10.4 mph 19.6 mph 0.29 in Rain Light Rain
4:51 AM 57.9 °F - 54.0 °F 87% 29.15 in 10.0 mi SSW 11.5 mph 28.8 mph 0.03 in   Mostly Cloudy
5:25 AM 53.6 °F - 46.4 °F 77% 29.21 in 7.0 mi West 19.6 mph 43.7 mph 0.00 in Rain Light Rain
5:47 AM 53.6 °F - 44.6 °F 72% 29.25 in 10.0 mi WNW 21.9 mph 38.0 mph 0.01 in   Overcast
5:51 AM 52.0 °F - 45.0 °F 77% 29.26 in 10.0 mi WNW 21.9 mph 32.2 mph 0.01 in   Overcast
5:59 AM 51.8 °F - 42.8 °F 71% 29.27 in 10.0 mi West 23.0 mph 38.0 mph N/A   Overcast
6:51 AM 48.9 °F - 35.1 °F 59% 29.34 in 10.0 mi WNW 19.6 mph 29.9 mph N/A   Overcast
7:51 AM 44.1 °F 34.6 °F 28.9 °F 55% 29.42 in 10.0 mi West 26.5 mph 46.0 mph N/A   Mostly Cloudy
8:51 AM 44.1 °F 35.4 °F 24.1 °F 45% 29.49 in 10.0 mi West 21.9 mph 34.5 mph N/A   Clear
9:51 AM 45.0 °F 35.6 °F 24.1 °F 44% 29.52 in 10.0 mi West 27.6 mph 35.7 mph N/A   Clear
10:51 AM 45.0 °F 36.4 °F 23.0 °F 42% 29.56 in 10.0 mi West 23.0 mph 32.2 mph N/A   Scattered Clouds
11:51 AM 46.0 °F 37.2 °F 21.9 °F 39% 29.58 in 10.0 mi West 26.5 mph 33.4 mph N/A   Partly Cloudy
12:51 PM 46.0 °F 37.0 °F 21.0 °F 37% 29.59 in 10.0 mi WNW 27.6 mph 35.7 mph N/A   Mostly Cloudy
1:51 PM 44.1 °F 34.2 °F 17.1 °F 34% 29.62 in 10.0 mi West 28.8 mph 41.4 mph N/A   Scattered Clouds
2:51 PM 42.1 °F 33.1 °F 17.1 °F 37% 29.64 in 10.0 mi West 20.7 mph 29.9 mph N/A   Clear
3:51 PM 41.0 °F 31.6 °F 17.1 °F 38% 29.69 in 10.0 mi West 20.7 mph 38.0 mph N/A   Mostly Cloudy
4:51 PM 37.9 °F 30.0 °F 18.0 °F 45% 29.73 in 10.0 mi West 12.7 mph 29.9 mph N/A   Mostly Cloudy
5:51 PM 37.0 °F 25.6 °F 14.0 °F 39% 29.77 in 10.0 mi WNW 24.2 mph 34.5 mph N/A   Scattered Clouds
6:51 PM 36.0 °F 26.3 °F 16.0 °F 44% 29.80 in 10.0 mi West 16.1 mph - N/A   Mostly Cloudy
7:51 PM 35.1 °F 22.7 °F 17.1 °F 48% 29.84 in 10.0 mi West 25.3 mph 33.4 mph N/A   Clear
8:51 PM 32.0 °F 19.8 °F 14.0 °F 48% 29.88 in 10.0 mi WNW 20.7 mph 32.2 mph N/A   Partly Cloudy
9:51 PM 30.9 °F 21.2 °F 9.0 °F 40% 29.89 in 10.0 mi West 12.7 mph 23.0 mph N/A   Clear
10:51 PM 28.9 °F 21.1 °F 10.0 °F 45% 29.90 in 10.0 mi WSW 8.1 mph - N/A   Clear
11:51 PM 30.0 °F 22.4 °F 10.0 °F 43% 29.91 in 10.0 mi SW 8.1 mph - N/A   Clear